Time,TemperatureF,DewpointF,PressureIn,WindDirection,WindDirectionDegrees,WindSpeedMPH,WindSpeedGustMPH,Humidity,HourlyPrecipIn,Conditions,Clouds,dailyrainin,SoftwareType,DateUTC
2013-01-18 00:04:00,33.0,29.0,-100.00,NNW,335,4.0,8.0,86,0.00,,,0.00,,2013-01-18 05:04:00,
2013-01-18 00:12:00,33.0,29.0,-100.00,NNW,335,4.0,8.0,86,0.00,,,0.00,,2013-01-18 05:12:00,
2013-01-18 00:22:00,33.0,29.0,-100.00,NNW,329,6.0,10.0,87,0.00,,,0.00,,2013-01-18 05:22:00,
2013-01-18 00:33:00,33.0,29.0,-100.00,NW,326,7.0,11.0,84,0.00,,,0.00,,2013-01-18 05:33:00,
2013-01-18 00:43:00,33.0,29.0,-100.00,NW,326,7.0,11.0,84,0.00,,,0.00,,2013-01-18 05:43:00,
2013-01-18 00:53:00,33.0,28.0,-100.00,NNW,336,4.0,8.0,84,0.00,,,0.00,,2013-01-18 05:53:00,
2013-01-18 01:02:00,33.0,28.0,-100.00,NNW,336,4.0,8.0,84,0.00,,,0.00,,2013-01-18 06:02:00,
2013-01-18 01:12:00,33.0,28.0,-100.00,NNW,336,4.0,8.0,84,0.00,,,0.00,,2013-01-18 06:12:00,
2013-01-18 01:23:00,33.0,28.0,-100.00,NNW,336,4.0,8.0,84,0.00,,,0.00,,2013-01-18 06:23:00,
2013-01-18 01:33:00,32.0,28.0,-100.00,NNW,335,4.0,6.0,82,0.00,,,0.00,,2013-01-18 06:33:00,
2013-01-18 01:43:00,32.0,28.0,-100.00,NNW,335,4.0,6.0,82,0.00,,,0.00,,2013-01-18 06:43:00,
2013-01-18 01:53:00,33.0,26.0,-100.00,NNW,336,5.0,11.0,78,0.00,,,0.00,,2013-01-18 06:53:00,
2013-01-18 02:02:00,33.0,26.0,-100.00,NNW,336,5.0,11.0,78,0.00,,,0.00,,2013-01-18 07:02:00,
2013-01-18 02:12:00,33.0,26.0,-100.00,NNW,336,5.0,11.0,78,0.00,,,0.00,,2013-01-18 07:12:00,
2013-01-18 02:22:00,33.0,26.0,-100.00,NNW,332,4.0,10.0,75,0.00,,,0.00,,2013-01-18 07:22:00,
2013-01-18 02:33:00,32.0,25.0,-100.00,NW,325,6.0,11.0,74,0.00,,,0.00,,2013-01-18 07:33:00,
2013-01-18 02:42:00,32.0,25.0,-100.00,NW,325,6.0,11.0,74,0.00,,,0.00,,2013-01-18 07:42:00,
2013-01-18 02:52:00,33.0,24.0,-100.00,NNW,330,7.0,17.0,70,0.00,,,0.00,,2013-01-18 07:52:00,
2013-01-18 03:02:00,33.0,24.0,-100.00,NNW,330,7.0,17.0,70,0.00,,,0.00,,2013-01-18 08:02:00,
2013-01-18 03:12:00,33.0,24.0,-100.00,NNW,330,7.0,17.0,70,0.00,,,0.00,,2013-01-18 08:12:00,
2013-01-18 03:22:00,33.0,24.0,-100.00,NNW,330,9.0,19.0,68,0.00,,,0.00,,2013-01-18 08:22:00,
2013-01-18 03:32:00,33.0,24.0,-100.00,NNW,329,8.0,13.0,70,0.00,,,0.00,,2013-01-18 08:32:00,
2013-01-18 03:42:00,33.0,24.0,-100.00,NNW,329,8.0,13.0,70,0.00,,,0.00,,2013-01-18 08:42:00,
2013-01-18 03:53:00,32.0,24.0,-100.00,NNW,330,5.0,10.0,71,0.00,,,0.00,,2013-01-18 08:53:00,
2013-01-18 04:03:00,32.0,24.0,-100.00,NNW,330,5.0,10.0,71,0.00,,,0.00,,2013-01-18 09:03:00,
2013-01-18 04:12:00,32.0,24.0,-100.00,NNW,330,5.0,10.0,71,0.00,,,0.00,,2013-01-18 09:12:00,
2013-01-18 04:22:00,32.0,23.0,-100.00,NNW,328,6.0,11.0,69,0.00,,,0.00,,2013-01-18 09:22:00,
2013-01-18 04:33:00,32.0,23.0,-100.00,NNW,328,6.0,11.0,69,0.00,,,0.00,,2013-01-18 09:33:00,
2013-01-18 04:42:00,33.0,22.0,-100.00,NNW,329,9.0,18.0,64,0.00,,,0.00,,2013-01-18 09:42:00,
2013-01-18 04:53:00,34.0,20.0,-100.00,NNW,330,14.0,27.0,57,0.00,,,0.00,,2013-01-18 09:53:00,
2013-01-18 05:03:00,34.0,20.0,-100.00,NNW,330,14.0,27.0,57,0.00,,,0.00,,2013-01-18 10:03:00,
2013-01-18 05:12:00,34.0,20.0,-100.00,NNW,330,14.0,27.0,57,0.00,,,0.00,,2013-01-18 10:12:00,
2013-01-18 05:22:00,34.0,19.0,-100.00,NNW,330,13.0,32.0,54,0.00,,,0.00,,2013-01-18 10:22:00,
2013-01-18 05:33:00,34.0,19.0,-100.00,NNW,330,13.0,32.0,54,0.00,,,0.00,,2013-01-18 10:33:00,
2013-01-18 05:43:00,34.0,19.0,-100.00,NNW,330,13.0,32.0,54,0.00,,,0.00,,2013-01-18 10:43:00,
2013-01-18 05:53:00,32.0,17.0,-100.00,NNW,335,9.0,22.0,54,0.00,,,0.00,,2013-01-18 10:53:00,
2013-01-18 06:03:00,32.0,17.0,-100.00,NNW,335,9.0,22.0,54,0.00,,,0.00,,2013-01-18 11:03:00,
2013-01-18 06:12:00,32.0,17.0,-100.00,NNW,335,9.0,22.0,54,0.00,,,0.00,,2013-01-18 11:12:00,
2013-01-18 06:23:00,31.0,16.0,-100.00,NNW,337,10.0,26.0,54,0.00,,,0.00,,2013-01-18 11:23:00,
2013-01-18 06:33:00,31.0,16.0,-100.00,NNW,337,10.0,26.0,54,0.00,,,0.00,,2013-01-18 11:33:00,
2013-01-18 06:42:00,30.0,17.0,-100.00,NNW,336,7.0,16.0,57,0.00,,,0.00,,2013-01-18 11:42:00,
2013-01-18 06:52:00,29.0,15.0,-100.00,NNW,337,8.0,15.0,54,0.00,,,0.00,,2013-01-18 11:52:00,
2013-01-18 07:03:00,29.0,15.0,-100.00,NNW,337,8.0,15.0,54,0.00,,,0.00,,2013-01-18 12:03:00,
2013-01-18 07:12:00,29.0,15.0,-100.00,NNW,337,8.0,15.0,54,0.00,,,0.00,,2013-01-18 12:12:00,
2013-01-18 07:23:00,29.0,15.0,-100.00,NNW,333,10.0,24.0,55,0.00,,,0.00,,2013-01-18 12:23:00,
2013-01-18 07:33:00,29.0,15.0,-100.00,NNW,333,10.0,24.0,55,0.00,,,0.00,,2013-01-18 12:33:00,
2013-01-18 07:43:00,28.0,13.0,-100.00,NNW,333,10.0,16.0,53,0.00,,,0.00,,2013-01-18 12:43:00,
2013-01-18 07:53:00,28.0,13.0,-100.00,NNW,330,13.0,24.0,53,0.00,,,0.00,,2013-01-18 12:53:00,
2013-01-18 08:03:00,28.0,13.0,-100.00,NNW,330,13.0,24.0,53,0.00,,,0.00,,2013-01-18 13:03:00,
2013-01-18 08:12:00,28.0,13.0,-100.00,NNW,330,13.0,24.0,53,0.00,,,0.00,,2013-01-18 13:12:00,
2013-01-18 08:23:00,27.0,13.0,-100.00,NNW,333,12.0,21.0,54,0.00,,,0.00,,2013-01-18 13:23:00,
2013-01-18 08:33:00,27.0,13.0,-100.00,NNW,335,11.0,26.0,53,0.00,,,0.00,,2013-01-18 13:33:00,
2013-01-18 08:43:00,27.0,13.0,-100.00,NNW,335,11.0,26.0,53,0.00,,,0.00,,2013-01-18 13:43:00,
2013-01-18 08:53:00,28.0,13.0,-100.00,NNW,337,10.0,22.0,53,0.00,,,0.00,,2013-01-18 13:53:00,
2013-01-18 09:03:00,28.0,13.0,-100.00,NNW,337,10.0,22.0,53,0.00,,,0.00,,2013-01-18 14:03:00,
2013-01-18 09:13:00,28.0,13.0,-100.00,NNW,337,10.0,22.0,53,0.00,,,0.00,,2013-01-18 14:13:00,
2013-01-18 09:23:00,28.0,12.0,-100.00,NNW,337,9.0,24.0,52,0.00,,,0.00,,2013-01-18 14:23:00,
2013-01-18 09:34:00,28.0,13.0,-100.00,NNW,330,10.0,21.0,53,0.00,,,0.00,,2013-01-18 14:34:00,
2013-01-18 09:43:00,28.0,13.0,-100.00,NNW,330,10.0,21.0,53,0.00,,,0.00,,2013-01-18 14:43:00,
2013-01-18 09:53:00,29.0,14.0,-100.00,NNW,332,11.0,23.0,53,0.00,,,0.00,,2013-01-18 14:53:00,
2013-01-18 10:03:00,29.0,14.0,-100.00,NNW,332,11.0,23.0,53,0.00,,,0.00,,2013-01-18 15:03:00,
2013-01-18 10:13:00,29.0,14.0,-100.00,NNW,332,11.0,23.0,53,0.00,,,0.00,,2013-01-18 15:13:00,
2013-01-18 10:23:00,29.0,13.0,-100.00,NNW,330,10.0,20.0,52,0.00,,,0.00,,2013-01-18 15:23:00,
2013-01-18 10:34:00,29.0,14.0,-100.00,NNW,336,8.0,14.0,52,0.00,,,0.00,,2013-01-18 15:34:00,
2013-01-18 10:43:00,29.0,14.0,-100.00,NNW,336,8.0,14.0,52,0.00,,,0.00,,2013-01-18 15:43:00,
2013-01-18 10:54:00,29.0,15.0,-100.00,NNW,328,8.0,16.0,55,0.00,,,0.00,,2013-01-18 15:54:00,
2013-01-18 11:03:00,29.0,15.0,-100.00,NNW,328,8.0,16.0,55,0.00,,,0.00,,2013-01-18 16:03:00,
2013-01-18 11:13:00,29.0,15.0,-100.00,NNW,328,8.0,16.0,55,0.00,,,0.00,,2013-01-18 16:13:00,
2013-01-18 11:23:00,31.0,16.0,-100.00,NW,325,10.0,17.0,54,0.00,,,0.00,,2013-01-18 16:23:00,
2013-01-18 11:33:00,31.0,14.0,-100.00,NW,325,9.0,16.0,50,0.00,,,0.00,,2013-01-18 16:33:00,
2013-01-18 11:43:00,31.0,14.0,-100.00,NW,325,9.0,16.0,50,0.00,,,0.00,,2013-01-18 16:43:00,
2013-01-18 11:53:00,31.0,13.0,-100.00,NNW,330,9.0,18.0,46,0.00,,,0.00,,2013-01-18 16:53:00,
2013-01-18 12:03:00,31.0,13.0,-100.00,NNW,330,9.0,18.0,46,0.00,,,0.00,,2013-01-18 17:03:00,
2013-01-18 12:13:00,31.0,13.0,-100.00,NNW,330,9.0,18.0,46,0.00,,,0.00,,2013-01-18 17:13:00,
2013-01-18 12:23:00,32.0,12.0,-100.00,NW,326,12.0,20.0,44,0.00,,,0.00,,2013-01-18 17:23:00,
2013-01-18 12:34:00,32.0,12.0,-100.00,NW,326,12.0,20.0,44,0.00,,,0.00,,2013-01-18 17:34:00,
2013-01-18 12:43:00,32.0,11.0,-100.00,NNW,333,7.0,15.0,41,0.00,,,0.00,,2013-01-18 17:43:00,
2013-01-18 12:53:00,32.0,11.0,-100.00,NNW,333,7.0,15.0,41,0.00,,,0.00,,2013-01-18 17:53:00,
2013-01-18 13:03:00,31.0,11.0,-100.00,NW,326,9.0,15.0,42,0.00,,,0.00,,2013-01-18 18:03:00,
2013-01-18 13:13:00,31.0,11.0,-100.00,NW,326,9.0,15.0,42,0.00,,,0.00,,2013-01-18 18:13:00,
2013-01-18 13:23:00,32.0,11.0,-100.00,NW,322,10.0,18.0,41,0.00,,,0.00,,2013-01-18 18:23:00,
2013-01-18 13:33:00,32.0,11.0,-100.00,NW,322,10.0,18.0,41,0.00,,,0.00,,2013-01-18 18:33:00,
2013-01-18 13:43:00,32.0,12.0,-100.00,NW,312,9.0,15.0,43,0.00,,,0.00,,2013-01-18 18:43:00,
2013-01-18 13:53:00,32.0,12.0,-100.00,NW,312,9.0,15.0,43,0.00,,,0.00,,2013-01-18 18:53:00,
2013-01-18 14:03:00,33.0,12.0,-100.00,NW,323,8.0,15.0,41,0.00,,,0.00,,2013-01-18 19:03:00,
2013-01-18 14:13:00,33.0,12.0,-100.00,NW,323,8.0,15.0,41,0.00,,,0.00,,2013-01-18 19:13:00,
2013-01-18 14:23:00,33.0,12.0,-100.00,NW,325,9.0,14.0,41,0.00,,,0.00,,2013-01-18 19:23:00,
2013-01-18 14:33:00,33.0,12.0,-100.00,NW,325,9.0,14.0,41,0.00,,,0.00,,2013-01-18 19:33:00,
2013-01-18 14:43:00,34.0,13.0,-100.00,NNW,328,7.0,15.0,41,0.00,,,0.00,,2013-01-18 19:43:00,
2013-01-18 14:53:00,34.0,13.0,-100.00,NNW,328,7.0,15.0,41,0.00,,,0.00,,2013-01-18 19:53:00,
2013-01-18 15:03:00,35.0,10.0,-100.00,NNW,330,6.0,12.0,35,0.00,,,0.00,,2013-01-18 20:03:00,
2013-01-18 15:13:00,35.0,10.0,-100.00,NNW,330,6.0,12.0,35,0.00,,,0.00,,2013-01-18 20:13:00,
2013-01-18 15:23:00,35.0,7.0,-100.00,NNW,335,6.0,13.0,30,0.00,,,0.00,,2013-01-18 20:23:00,
2013-01-18 15:33:00,35.0,7.0,-100.00,NNW,335,6.0,13.0,30,0.00,,,0.00,,2013-01-18 20:33:00,
2013-01-18 15:43:00,35.0,7.0,-100.00,NW,322,7.0,13.0,30,0.00,,,0.00,,2013-01-18 20:43:00,
2013-01-18 15:53:00,35.0,7.0,-100.00,NW,322,7.0,13.0,30,0.00,,,0.00,,2013-01-18 20:53:00,
2013-01-18 16:03:00,35.0,8.0,-100.00,NW,312,5.0,11.0,32,0.00,,,0.00,,2013-01-18 21:03:00,
2013-01-18 16:13:00,35.0,8.0,-100.00,NW,312,5.0,11.0,32,0.00,,,0.00,,2013-01-18 21:13:00,
2013-01-18 16:23:00,35.0,8.0,-100.00,NW,312,4.0,7.0,31,0.00,,,0.00,,2013-01-18 21:23:00,
2013-01-18 16:33:00,35.0,8.0,-100.00,NW,312,4.0,7.0,31,0.00,,,0.00,,2013-01-18 21:33:00,
2013-01-18 16:43:00,36.0,8.0,-100.00,North,3,2.0,5.0,30,0.00,,,0.00,,2013-01-18 21:43:00,
2013-01-18 16:53:00,36.0,8.0,-100.00,North,3,2.0,5.0,30,0.00,,,0.00,,2013-01-18 21:53:00,
2013-01-18 17:03:00,34.0,10.0,-100.00,NNW,339,3.0,5.0,36,0.00,,,0.00,,2013-01-18 22:03:00,
2013-01-18 17:12:00,34.0,10.0,-100.00,NNW,339,3.0,5.0,36,0.00,,,0.00,,2013-01-18 22:12:00,
2013-01-18 17:23:00,33.0,11.0,-100.00,SE,136,0.0,2.0,40,0.00,,,0.00,,2013-01-18 22:23:00,
2013-01-18 17:33:00,33.0,11.0,-100.00,SE,136,0.0,2.0,40,0.00,,,0.00,,2013-01-18 22:33:00,
2013-01-18 17:43:00,32.0,8.0,-100.00,ENE,78,0.0,2.0,36,0.00,,,0.00,,2013-01-18 22:43:00,
2013-01-18 17:53:00,32.0,8.0,-100.00,ENE,78,0.0,2.0,36,0.00,,,0.00,,2013-01-18 22:53:00,
2013-01-18 18:03:00,31.0,11.0,-100.00,East,95,1.0,4.0,42,0.00,,,0.00,,2013-01-18 23:03:00,
2013-01-18 18:12:00,31.0,11.0,-100.00,East,95,1.0,4.0,42,0.00,,,0.00,,2013-01-18 23:12:00,
2013-01-18 18:23:00,29.0,15.0,-100.00,SSE,147,5.0,6.0,53,0.00,,,0.00,,2013-01-18 23:23:00,
2013-01-18 18:33:00,29.0,15.0,-100.00,SSE,147,5.0,6.0,53,0.00,,,0.00,,2013-01-18 23:33:00,
2013-01-18 18:43:00,30.0,15.0,-100.00,SE,143,6.0,10.0,55,0.00,,,0.00,,2013-01-18 23:43:00,
2013-01-18 18:53:00,30.0,15.0,-100.00,SE,143,6.0,10.0,55,0.00,,,0.00,,2013-01-18 23:53:00,
2013-01-18 19:03:00,28.0,16.0,-100.00,SSE,151,6.0,8.0,58,0.00,,,0.00,,2013-01-19 00:03:00,
2013-01-18 19:13:00,28.0,16.0,-100.00,SSE,151,6.0,8.0,58,0.00,,,0.00,,2013-01-19 00:13:00,
2013-01-18 19:23:00,29.0,15.0,-100.00,SE,144,9.0,12.0,54,0.00,,,0.00,,2013-01-19 00:23:00,
2013-01-18 19:33:00,29.0,15.0,-100.00,SE,144,9.0,12.0,54,0.00,,,0.00,,2013-01-19 00:33:00,
2013-01-18 19:43:00,28.0,14.0,-100.00,SSE,150,7.0,9.0,56,0.00,,,0.00,,2013-01-19 00:43:00,
2013-01-18 19:53:00,28.0,14.0,-100.00,SSE,150,7.0,9.0,56,0.00,,,0.00,,2013-01-19 00:53:00,
2013-01-18 20:03:00,28.0,15.0,-100.00,SSE,152,7.0,9.0,57,0.00,,,0.00,,2013-01-19 01:03:00,
2013-01-18 20:12:00,28.0,15.0,-100.00,SSE,152,7.0,9.0,57,0.00,,,0.00,,2013-01-19 01:12:00,
2013-01-18 20:23:00,29.0,14.0,-100.00,SSE,147,6.0,9.0,54,0.00,,,0.00,,2013-01-19 01:23:00,
2013-01-18 20:33:00,29.0,14.0,-100.00,SSE,147,6.0,9.0,54,0.00,,,0.00,,2013-01-19 01:33:00,
2013-01-18 20:43:00,31.0,13.0,-100.00,ESE,123,7.0,12.0,46,0.00,,,0.00,,2013-01-19 01:43:00,
2013-01-18 20:53:00,31.0,13.0,-100.00,ESE,123,7.0,12.0,46,0.00,,,0.00,,2013-01-19 01:53:00,
2013-01-18 21:03:00,30.0,15.0,-100.00,SE,126,7.0,11.0,52,0.00,,,0.00,,2013-01-19 02:03:00,
2013-01-18 21:12:00,30.0,15.0,-100.00,SE,126,7.0,11.0,52,0.00,,,0.00,,2013-01-19 02:12:00,
2013-01-18 21:23:00,31.0,15.0,-100.00,SE,126,7.0,11.0,53,0.00,,,0.00,,2013-01-19 02:23:00,
2013-01-18 21:33:00,31.0,15.0,-100.00,SE,126,7.0,11.0,53,0.00,,,0.00,,2013-01-19 02:33:00,
2013-01-18 21:43:00,30.0,17.0,-100.00,SE,140,7.0,11.0,59,0.00,,,0.00,,2013-01-19 02:43:00,
2013-01-18 21:53:00,30.0,17.0,-100.00,SE,140,7.0,11.0,59,0.00,,,0.00,,2013-01-19 02:53:00,
2013-01-18 22:03:00,29.0,16.0,-100.00,SSE,147,7.0,10.0,59,0.00,,,0.00,,2013-01-19 03:03:00,
2013-01-18 22:12:00,29.0,16.0,-100.00,SSE,147,7.0,10.0,59,0.00,,,0.00,,2013-01-19 03:12:00,
2013-01-18 22:23:00,29.0,18.0,-100.00,SE,130,6.0,11.0,64,0.00,,,0.00,,2013-01-19 03:23:00,
2013-01-18 22:33:00,29.0,18.0,-100.00,SE,130,6.0,11.0,64,0.00,,,0.00,,2013-01-19 03:33:00,
2013-01-18 22:43:00,28.0,18.0,-100.00,SE,130,6.0,10.0,66,0.00,,,0.00,,2013-01-19 03:43:00,
2013-01-18 22:53:00,28.0,18.0,-100.00,SE,130,6.0,10.0,66,0.00,,,0.00,,2013-01-19 03:53:00,
2013-01-18 23:02:00,29.0,21.0,-100.00,SE,133,5.0,9.0,72,0.00,,,0.00,,2013-01-19 04:02:00,
2013-01-18 23:12:00,29.0,21.0,-100.00,SE,133,5.0,9.0,72,0.00,,,0.00,,2013-01-19 04:12:00,
2013-01-18 23:22:00,28.0,20.0,-100.00,SE,141,8.0,10.0,72,0.00,,,0.00,,2013-01-19 04:22:00,
2013-01-18 23:33:00,28.0,20.0,-100.00,SE,141,8.0,10.0,72,0.00,,,0.00,,2013-01-19 04:33:00,
2013-01-18 23:42:00,26.0,20.0,-100.00,SSE,151,9.0,11.0,76,0.00,,,0.00,,2013-01-19 04:42:00,
2013-01-18 23:53:00,26.0,20.0,-100.00,SSE,151,9.0,11.0,76,0.00,,,0.00,,2013-01-19 04:53:00,